Location: Unnamed
(48.6007°N, 2.4808°E)
Time: 09:04:34
(UTC+01:00)

FENGYUN 1C DEB - Pass Details

Date: 03 December 2023
Orbit: 508 x 828 km, 98.6° (Epoch: 23 February)

Event Time Altitude Azimuth Distance (km) Brightness Sun altitude
Rises 06:01:19 0° 5° (N) 3,283 ? -22.6°
Reaches altitude 10° 06:03:55 10° 353° (N) 2,393 ? -22.1°
Enters shadow 06:04:51 14° 347° (NNW) 2,112 ? -22.0°
